CAPE
84 1215 458 193 14 75 203 99 94 121 128 151 269 350 399 438 491 466 466 342 163 82 0 0 0 0 0 0 0 0 17 33 113 186 305 418 175 0 0 13 158 456 700
213 990 333 170 69 19 121 125 215 206 108 98 151 201 299 430 486 515 421 173 68 0 0 0 0 0 0 0 10 13 0 0 36 78 0 0 0 16 15 27 90 289 637
429 693 209 215 128 22 91 78 81 192 203 208 204 245 304 424 553 567 266 104 6 0 0 0 0 0 0 0 0 0 0 0 116 0 0 0 0 0 499 124 666 283 51
525 522 124 309 327 78 58 56 47 156 200 166 154 159 275 520 645 507 160 18 0 0 0 0 0 0 0 0 0 0 0 0 147 0 0 0 0 25 699 388 484 71 0
667 463 158 501 591 246 110 86 140 288 231 168 114 173 313 568 656 457 149 1 0 0 0 0 0 0 0 0 0 0 0 0 80 0 0 0 0 869 705 483 344 48 0
645 435 489 764 763 550 181 185 273 355 269 168 170 237 384 598 661 436 64 0 0 0 0 0 0 0 0 0 0 0 0 0 30 0 0 0 0 805 662 306 106 0 0
464 497 829 945 999 860 363 326 339 362 257 261 311 308 345 592 743 418 56 0 0 0 0 0 0 0 0 0 0 0 0 8 73 0 0 0 0 618 350 175 3 0 0
294 543 965 928 948 1099 716 368 337 353 339 360 314 314 343 534 658 543 185 3 0 0 0 0 0 0 0 0 0 0 5 91 164 30 0 0 0 80 57 0 0 0 0
538 778 986 888 945 1082 915 376 388 390 328 291 318 322 314 358 461 582 368 79 0 0 0 0 0 0 8 41 31 43 53 293 500 0 0 0 0 29 0 0 0 0 0
695 805 918 954 855 899 1055 667 450 334 311 291 326 398 345 309 275 351 324 284 119 29 1 11 21 58 114 102 90 96 72 75 0 0 0 0 0 0 0 0 0 0 0
569 660 883 835 960 889 805 709 468 410 368 338 405 432 370 314 225 175 218 282 338 410 348 316 309 438 446 252 97 17 44 0 0 0 0 0 0 0 0 0 0 0 0
171 266 415 523 544 574 697 504 503 420 510 445 433 363 437 205 128 136 205 256 375 413 654 815 814 911 954 280 1 0 0 0 0 0 0 0 0 0 0 0 0 0 0
41 158 241 249 338 378 364 339 387 360 415 451 406 355 400 302 181 199 175 115 209 412 568 658 913 957 588 41 0 0 0 0 0 0 0 0 0 0 9 16 18 0 0
78 56 191 264 269 251 223 175 215 295 374 362 456 451 388 247 181 67 24 33 64 144 386 523 566 512 57 0 0 0 0 0 0 0 0 0 0 0 0 16 26 0 0
69 60 122 256 194 189 194 184 215 244 243 341 422 462 443 218 118 77 47 67 143 214 332 460 485 272 0 0 0 0 0 0 0 0 0 0 0 0 0 0 1 0 10
173 80 97 190 193 217 142 127 184 201 292 356 370 380 410 317 149 74 149 344 506 512 481 447 277 21 0 0 0 0 0 0 0 0 0 0 0 0 0 0 7 35 45
412 267 164 148 196 154 117 106 165 178 260 231 235 304 351 340 196 138 206 434 431 380 321 91 0 0 0 0 0 0 0 0 0 0 0 0 0 0 0 0 11 33 46
554 522 409 288 228 130 72 85 113 196 195 146 203 270 355 341 358 284 271 362 97 36 15 0 0 0 0 0 0 0 0 0 0 0 0 0 0 0 0 0 17 51 49
623 624 566 446 382 239 84 70 86 201 252 249 350 431 453 481 534 497 244 122 3 0 0 0 0 0 0 0 0 0 0 0 0 0 0 0 0 0 0 0 0 0 35
660 710 594 566 511 386 179 107 132 214 273 425 554 627 698 706 708 414 133 19 1 8 16 0 0 0 0 0 0 0 0 0 0 0 0 0 0 0 0 0 0 0 0
131 487 653 603 600 513 387 294 176 275 385 476 585 621 593 647 593 270 63 12 0 0 0 0 0 0 0 0 0 0 0 0 0 0 0 0 0 0 0 0 0 0 0
193 142 289 493 535 607 577 482 414 489 510 559 510 538 473 442 374 221 162 0 0 0 0 0 0 0 0 0 0 0 0 0 0 0 0 0 0 0 0 0 0 0 0
332 156 102 206 351 493 545 506 532 517 575 648 675 579 403 307 277 214 100 2 0 0 0 0 0 0 0 0 0 0 0 0 0 0 0 0 0 0 0 0 0 0 0
315 98 80 105 199 291 412 485 643 669 650 650 634 453 427 281 143 70 18 7 0 0 0 0 0 0 0 0 0 0 0 0 0 0 0 0 0 0 0 0 0 0 0
119 165 109 144 175 235 351 470 532 575 488 425 446 434 344 172 92 29 0 0 0 0 0 0 0 0 0 0 0 0 0 0 0 0 0 0 0 0 0 0 0 0 0
237 220 165 188 194 263 335 469 499 570 603 499 367 339 237 141 91 47 1 0 0 0 0 0 0 0 0 0 0 0 0 0 0 0 0 0 0 4 1 0 0 0 0
CIN
-422 -102 -199 -242 -376 -286 -237 -267 -257 -231 -231 -227 -197 -183 -165 -151 -143 -150 -141 -164 -200 -210 -0 -0 -0 -0 -0 -0 -0 -0 -123 -151 -136 -121 -112 -98 -130 -0 -0 -139 -130 -88 -58
-415 -172 -227 -247 -304 -333 -251 -263 -232 -224 -242 -233 -227 -213 -195 -164 -154 -147 -154 -210 -239 -0 -0 -0 -0 -0 -0 -0 -164 -154 -0 -0 -153 -147 -0 -0 -0 -61 -54 -168 -175 -102 -60
-312 -249 -325 -249 -243 -305 -249 -258 -266 -230 -225 -230 -230 -220 -196 -165 -138 -134 -193 -242 -322 -0 -0 -0 -0 -0 -0 -0 -0 -0 -0 -0 -155 -0 -0 -0 -0 -0 -89 -131 -66 -83 -127
-306 -289 -369 -240 -212 -271 -249 -263 -263 -231 -220 -238 -252 -245 -198 -144 -125 -141 -221 -337 -0 -0 -0 -0 -0 -0 -0 -0 -0 -0 -0 -0 -173 -0 -0 -0 -0 -42 -66 -82 -62 -92 -0
-274 -293 -331 -201 -170 -212 -260 -258 -246 -211 -219 -244 -257 -230 -190 -146 -139 -160 -215 -53 -0 -0 -0 -0 -0 -0 -0 -0 -0 -0 -0 -0 -171 -0 -0 -0 -0 -62 -61 -63 -64 -87 -0
-260 -269 -221 -161 -154 -165 -230 -242 -229 -212 -229 -250 -252 -239 -200 -158 -154 -175 -278 -0 -0 -0 -0 -0 -0 -0 -0 -0 -0 -0 -0 -0 -191 -0 -0 -0 -0 -43 -52 -61 -74 -0 -0
-261 -233 -168 -136 -127 -137 -199 -220 -229 -224 -245 -249 -245 -243 -220 -173 -148 -189 -299 -0 -0 -0 -0 -0 -0 -0 -0 -0 -0 -0 -0 -170 -185 -0 -0 -0 -0 -43 -45 -59 -50 -0 -0
-268 -233 -156 -163 -153 -129 -170 -225 -240 -243 -249 -245 -257 -253 -236 -191 -154 -169 -262 -92 -0 -0 -0 -0 -0 -0 -0 -0 -0 -0 -174 -168 -148 -158 -0 -0 -0 -57 -60 -0 -0 -0 -0
-225 -183 -161 -186 -164 -149 -174 -236 -244 -253 -261 -275 -260 -264 -260 -228 -198 -174 -220 -327 -0 -0 -0 -0 -0 -0 -248 -264 -269 -239 -196 -106 -67 -0 -0 -0 -0 -49 -0 -0 -0 -0 -0
-186 -173 -169 -175 -199 -201 -174 -197 -240 -270 -281 -291 -269 -251 -261 -253 -264 -247 -251 -256 -318 -346 -15 -354 -337 -294 -248 -242 -227 -197 -167 -132 -0 -0 -0 -0 -0 -0 -0 -0 -0 -0 -0
-224 -213 -186 -203 -188 -205 -216 -218 -246 -265 -275 -276 -271 -259 -276 -290 -317 -331 -302 -283 -257 -225 -234 -240 -227 -186 -165 -190 -210 -214 -105 -0 -0 -0 -0 -0 -0 -0 -0 -0 -0 -0 -0
-388 -351 -303 -283 -277 -267 -239 -275 -278 -288 -268 -288 -286 -309 -294 -351 -383 -381 -331 -288 -248 -224 -173 -134 -121 -98 -78 -184 -18 -0 -0 -0 -0 -0 -0 -0 -0 -0 -0 -0 -0 -0 -0
-474 -450 -409 -400 -358 -314 -313 -353 -338 -349 -331 -320 -331 -345 -328 -355 -400 -381 -377 -374 -309 -230 -183 -154 -101 -87 -133 -278 -2 -0 -0 -0 -0 -0 -0 -0 -0 -0 -5 -1 -6 -0 -0
-573 -550 -505 -480 -448 -443 -445 -465 -453 -416 -395 -384 -362 -366 -377 -412 -430 -460 -465 -414 -384 -316 -215 -183 -156 -157 -286 -0 -0 -0 -0 -0 -0 -0 -0 -0 -0 -0 -0 -0 -0 -0 -0
-568 -600 -572 -582 -570 -558 -538 -539 -533 -491 -486 -449 -426 -408 -392 -439 -447 -455 -434 -410 -345 -297 -233 -183 -170 -211 -0 -0 -0 -0 -0 -0 -0 -0 -0 -0 -0 -0 -0 -0 -0 -0 -16
-543 -601 -648 -627 -644 -627 -610 -629 -572 -549 -505 -485 -455 -436 -423 -425 -448 -470 -382 -296 -234 -217 -207 -205 -234 -303 -0 -0 -0 -0 -0 -0 -0 -0 -0 -0 -0 -0 -0 -0 -0 -0 -5
-469 -536 -600 -634 -678 -685 -675 -665 -621 -585 -558 -526 -491 -466 -430 -430 -437 -419 -347 -232 -216 -255 -313 -373 -0 -0 -0 -0 -0 -0 -0 -0 -0 -0 -0 -0 -0 -0 -0 -0 -4 -0 -0
-475 -477 -503 -586 -650 -699 -684 -684 -671 -613 -552 -548 -499 -463 -409 -398 -379 -351 -279 -209 -314 -353 -270 -0 -0 -0 -0 -0 -0 -0 -0 -0 -0 -0 -0 -0 -0 -0 -0 -0 -14 -3 -0
-457 -480 -487 -571 -531 -583 -678 -673 -648 -571 -523 -502 -464 -394 -344 -325 -329 -301 -232 -196 -151 -0 -0 -0 -0 -0 -0 -0 -0 -0 -0 -0 -0 -0 -0 -0 -0 -0 -0 -0 -0 -0 -22
-433 -482 -491 -511 -523 -549 -614 -686 -634 -578 -539 -493 -409 -370 -320 -290 -254 -290 -354 -372 -180 -60 -104 -0 -0 -0 -0 -0 -0 -0 -0 -0 -0 -0 -0 -0 -0 -0 -0 -0 -0 -0 -0
-503 -457 -490 -495 -494 -555 -529 -504 -548 -482 -472 -493 -448 -380 -357 -319 -297 -352 -390 -348 -0 -0 -0 -0 -0 -0 -0 -0 -0 -0 -0 -0 -0 -0 -0 -0 -0 -0 -0 -0 -0 -0 -0
-402 -459 -552 -490 -511 -477 -491 -497 -499 -443 -487 -451 -449 -394 -392 -357 -365 -341 -313 -0 -0 -4 -0 -0 -0 -0 -0 -0 -0 -0 -0 -0 -0 -0 -0 -0 -0 -0 -0 -0 -0 -0 -0
-333 -473 -508 -544 -479 -467 -503 -553 -538 -549 -496 -387 -363 -357 -383 -360 -340 -351 -295 -135 -0 -0 -0 -0 -0 -0 -0 -0 -0 -0 -0 -0 -0 -0 -0 -0 -0 -0 -0 -0 -0 -0 -0
-399 -515 -500 -617 -511 -504 -491 -425 -336 -276 -239 -302 -325 -352 -298 -338 -358 -356 -243 -169 -0 -0 -0 -0 -0 -0 -0 -0 -0 -0 -0 -0 -0 -0 -0 -0 -0 -0 -0 -0 -0 -0 -0
-577 -531 -624 -590 -468 -543 -484 -470 -382 -339 -369 -420 -375 -299 -278 -320 -344 -314 -0 -0 -0 -0 -0 -0 -0 -0 -0 -0 -0 -0 -0 -0 -0 -0 -0 -0 -0 -0 -0 -0 -0 -0 -0
-616 -626 -614 -514 -485 -568 -568 -508 -429 -340 -302 -271 -269 -227 -219 -254 -322 -304 -140 -0 -0 -0 -0 -0 -0 -0 -0 -0 -0 -0 -0 -0 -0 -0 -0 -0 -0 -22 -19 -0 -0 -0 -0
Wind_Speed
17 20 21 21 21 20 19 19 19 19 19 19 19 18 18 18 18 19 19 19 18 18 18 18 18 18 19 19 19 19 19 19 19 19 19 19 19 17 16 16 17 17 17
17 19 18 18 18 18 17 17 17 17 18 18 18 18 18 18 18 18 18 18 17 17 17 18 18 18 18 18 18 18 18 19 19 20 21 22 22 19 14 15 16 17 17
15 17 18 17 14 14 14 14 15 16 16 16 17 17 18 18 18 18 17 16 16 16 16 17 17 17 17 17 17 17 18 19 20 22 23 24 24 22 13 13 14 15 17
15 14 15 16 15 14 13 14 14 15 15 16 16 17 17 17 17 16 15 15 15 16 16 15 15 16 16 16 16 17 18 20 21 23 25 26 25 24 13 13 14 16 17
15 14 13 12 12 13 14 14 14 14 15 15 16 16 16 16 15 14 13 14 14 15 14 14 14 14 15 15 16 17 19 21 21 23 25 27 26 21 16 15 15 17 20
14 15 13 10 11 13 14 14 13 13 15 16 16 15 16 15 14 13 13 14 14 13 13 13 13 13 13 14 15 17 18 20 20 22 24 26 25 20 18 17 17 19 21
16 15 15 10 9 13 14 13 14 15 16 16 15 15 15 14 12 12 13 14 13 13 12 12 12 11 11 13 14 17 19 21 20 21 23 25 23 21 19 18 18 19 21
17 17 16 15 12 14 14 16 17 17 17 16 16 15 14 13 13 13 13 13 13 13 13 11 10 9 11 12 15 17 19 20 20 20 22 23 20 19 19 18 18 19 20
15 17 18 16 17 17 18 20 20 18 18 17 16 15 15 15 14 12 13 14 14 13 11 9 8 9 10 11 13 15 17 18 19 20 22 22 18 16 16 17 17 18 19
15 16 18 17 19 20 21 22 21 20 19 18 17 17 16 14 14 14 15 15 13 11 9 7 7 7 9 11 14 17 17 19 20 21 21 21 15 13 14 14 16 17 19
15 17 21 22 23 22 22 22 23 22 21 20 19 17 16 16 16 16 14 14 12 11 9 7 6 8 12 14 16 18 19 21 22 23 22 17 14 13 14 15 16 17 19
19 22 22 23 25 24 24 23 23 22 21 20 19 18 19 18 16 13 14 14 12 10 8 6 6 9 13 14 16 18 21 22 22 24 22 20 16 17 16 16 17 17 18
22 22 24 25 24 25 24 23 22 21 21 21 21 20 19 16 14 14 13 11 8 7 6 5 6 9 10 12 15 19 21 23 23 22 21 21 19 18 17 17 15 15 16
21 24 24 26 26 26 24 23 23 23 23 22 21 19 16 14 12 11 9 7 6 4 4 3 4 9 11 14 17 20 23 24 23 22 23 24 24 23 17 16 14 14 15
22 23 24 24 26 26 26 25 24 23 22 21 19 17 15 12 10 7 6 3 2 3 2 5 7 9 12 15 18 22 24 25 25 24 26 24 24 23 20 18 16 14 15
21 22 22 23 23 23 24 23 22 21 20 17 16 14 11 9 8 5 2 2 4 5 6 7 8 11 12 15 18 22 25 27 28 27 27 26 24 23 21 19 16 14 16
21 20 20 20 21 22 22 22 21 19 17 16 14 12 10 8 7 5 2 5 9 12 10 11 12 12 13 16 19 22 25 26 27 27 28 27 26 21 20 21 17 15 15
20 19 18 19 18 19 21 19 18 16 15 14 12 8 7 6 5 5 6 7 18 17 19 19 14 13 16 18 19 19 22 24 25 26 28 27 26 24 22 22 21 19 19
19 20 16 16 16 18 16 16 14 11 12 11 8 7 7 6 7 9 15 20 17 17 14 21 10 14 17 17 18 20 23 26 26 25 26 26 27 26 24 23 23 24 23
18 18 18 14 14 13 11 8 9 10 12 10 10 11 10 9 12 15 16 16 17 24 7 13 7 14 16 15 19 22 24 25 23 24 26 24 24 25 24 24 24 25 26
20 21 19 14 13 9 9 9 9 14 11 10 10 11 12 14 16 15 13 11 18 12 8 8 9 13 16 18 23 24 25 24 23 25 26 24 23 24 24 25 26 26 27
20 21 16 18 12 12 10 8 9 10 12 14 15 15 17 17 15 13 13 14 20 14 15 4 7 14 19 20 24 27 29 25 22 25 24 24 24 23 23 25 26 27 29
22 16 16 15 13 12 11 10 13 16 19 20 19 18 18 17 15 15 13 13 13 13 12 4 7 12 17 21 21 25 29 29 28 24 24 24 23 24 22 24 25 26 28
15 9 12 11 12 12 10 12 14 16 17 21 21 21 21 22 21 16 15 13 9 15 6 4 9 13 18 21 22 22 22 24 28 29 23 24 24 24 22 24 23 25 28
4 5 6 8 12 10 11 11 12 14 17 21 22 22 22 21 17 15 17 11 12 8 5 8 11 15 18 21 22 22 23 23 24 25 30 25 25 24 22 22 25 27 28
9 5 1 4 6 7 10 11 13 14 15 18 20 20 16 14 13 15 11 10 10 7 8 10 13 15 17 21 22 22 23 26 26 24 26 25 26 26 25 26 27 28 29
Wind_Direction
126 126 125 120 115 106 100 95 91 89 87 87 88 87 87 85 83 83 84 82 79 79 73 70 69 65 61 58 56 54 44 35 30 28 22 18 18 16 13 8 6 5 5
117 125 123 119 113 106 99 95 91 90 90 90 90 89 89 89 90 88 87 84 80 75 75 75 73 68 61 56 50 40 34 29 21 11 4 1 357 3 14 6 2 0 1
116 124 125 121 110 103 99 95 93 93 92 91 92 93 94 95 93 90 83 79 75 77 78 74 69 63 55 49 41 32 22 13 6 4 359 355 351 356 15 10 6 6 1
118 123 125 123 115 108 103 99 96 94 91 94 94 98 97 98 92 84 75 74 77 80 79 73 67 61 50 39 31 21 12 6 5 359 354 351 349 347 11 7 359 354 352
119 123 125 120 115 110 109 105 101 98 97 99 101 104 102 100 91 79 74 75 83 83 79 73 66 60 45 32 27 20 12 7 5 0 354 350 352 360 8 4 358 347 341
119 125 127 123 116 113 113 111 106 105 107 111 111 109 110 104 91 79 79 86 92 84 81 75 70 64 54 40 24 16 9 4 4 0 355 351 352 359 360 357 352 343 336
123 129 128 127 120 119 119 118 118 120 123 121 118 116 117 109 92 86 98 102 97 94 92 96 91 77 55 33 20 9 1 356 358 359 357 350 349 350 349 349 347 344 339
124 131 132 132 129 129 128 132 134 134 133 128 129 126 122 112 108 108 106 109 111 115 116 109 93 66 37 23 13 5 360 358 356 354 354 352 352 351 347 347 347 344 340
117 130 136 136 139 140 142 147 147 144 143 141 140 136 133 133 122 113 119 128 134 131 121 102 65 46 36 27 18 11 7 3 0 356 352 350 351 352 353 351 349 345 342
116 131 140 142 146 150 153 157 156 155 155 153 150 149 142 137 136 138 142 148 141 133 116 88 81 59 36 22 13 7 6 3 359 355 352 351 358 1 358 353 349 346 342
122 136 149 154 158 157 157 162 165 167 164 161 157 153 148 152 155 154 152 153 151 149 140 124 90 36 14 6 4 1 0 356 354 353 354 1 3 357 352 347 344 341 339
142 153 154 158 163 164 165 165 167 167 166 164 162 160 163 167 162 152 161 163 156 157 145 121 66 27 10 6 3 2 356 354 353 351 353 354 353 347 342 340 339 338 338
150 148 159 163 164 165 167 166 165 166 167 170 173 171 170 162 160 160 161 154 143 143 124 76 44 26 20 13 6 1 358 355 355 355 355 351 346 341 338 336 335 336 336
150 161 160 166 168 170 169 169 170 171 175 177 177 171 166 163 158 158 155 144 135 123 113 86 45 18 13 11 4 359 356 356 357 355 352 347 344 342 338 333 331 332 333
158 161 163 162 168 171 174 175 174 176 176 178 175 173 169 167 166 153 151 104 64 45 54 20 16 14 7 3 359 357 355 354 354 353 348 346 343 341 340 336 332 330 331
164 167 163 164 167 166 172 176 176 176 177 174 174 174 172 171 171 165 154 359 347 351 354 358 1 4 5 1 358 356 354 351 350 349 347 344 341 339 336 335 333 329 330
170 166 167 167 168 173 176 179 179 179 178 179 180 176 177 178 188 198 238 337 341 333 337 344 357 2 0 358 355 353 352 351 352 352 352 350 348 344 343 341 335 332 328
180 176 171 171 171 176 181 180 180 181 182 187 187 187 193 205 225 256 301 296 330 332 323 324 346 351 350 352 353 355 355 354 353 353 353 353 353 351 346 342 341 336 331
188 188 179 176 178 182 183 185 187 190 195 201 209 216 224 243 269 300 316 317 354 315 338 320 354 347 346 350 352 353 352 351 351 351 351 352 353 354 354 350 346 341 338
197 196 196 188 187 185 185 193 203 208 212 219 223 226 237 273 300 313 317 324 334 340 355 336 348 347 349 354 354 350 351 351 354 355 353 354 355 357 357 354 350 347 345
203 204 203 200 196 195 196 207 219 217 229 241 254 257 273 293 302 306 314 320 322 342 339 348 350 345 349 355 349 348 351 358 359 355 354 356 354 354 353 349 347 345 340
207 210 210 209 213 213 223 245 283 285 287 294 297 292 297 300 300 297 297 312 333 336 345 3 350 347 343 350 347 347 344 348 351 352 351 349 349 347 347 346 345 342 338
208 216 213 216 216 225 238 276 294 304 305 306 304 301 300 300 294 291 283 312 334 353 346 5 2 351 346 348 351 346 343 342 345 350 350 350 349 345 345 345 344 342 338
213 227 217 221 221 231 248 261 263 275 283 301 304 304 303 305 308 300 301 322 331 343 356 14 2 352 350 346 348 348 348 346 344 343 348 347 346 342 340 343 343 341 337
204 230 237 226 220 239 241 251 266 278 297 306 310 308 304 302 312 308 309 314 326 348 27 6 356 351 350 348 347 346 344 344 343 341 338 342 342 340 341 340 337 336 336
19 9 324 214 233 250 265 274 276 281 292 298 304 305 300 303 309 312 314 330 339 8 8 358 353 351 350 349 347 346 342 340 339 339 335 337 337 338 336 334 332 331 332